SCP
0 0 0 0 0 0 0 0 0 0 0 0 0 0 0 0 0 0 0 0 0 0 0 0 0 0 0 0 0 0 0 0 0 0 0 0 0 0
0 0 0 0 0 0 0 0 0 0 0 0 0 0 0 0 0 0 0 0 0 0 0 0 0 0 0 0 0 0 0 0 0 0 0 0 0 0
0 0 0 0 0 0 0 0 0 0 0 0 0 0 0 0 0 0 0 0 0 0 0 0 0 0 0 0 0 0 0 0 0 0 0 0 0 0
0 0 0 0 0 0 0 0 0 0 0 0 0 0 0 0 0 0 0 0 0 0 0 0 0 0 0 0 0 0 0 0 0 0 0 0 0 0
0 0 0 0 0 0 0 0 0 0 0 0 0 0 0 0 0 0 0 0 0 0 0 0 0 0 0 0 0 0 0 0 0 0 0 0 0 0
0 0 0 0 0 0 0 0 0 0 0 0 0 0 0 0 0 0 0 0 0 0 0 0 0 0 0 0 0 0 0 0 0 0 0 0 0 0
0 0 0 0 0 0 0 0 0 0 0 0 0 0 0 0 0 0 0 0 0 0 0 0 0 0 0 0 0 0 0 0 0 0 0 0 0 0
0 0 0 0 0 0 0 0 0 0 0 0 0 0 0 0 0 0 0 0 0 0 0 0 0 0 0 0 0 0 0 0 0 0 0 0 0 0
0 0 0 0 0 0 0 0 0 0 0 0 0 0 0 0 0 0 0 0 0 0 0 0 0 0 0 0 0 0 0 0 0 0 0 0 0 0
0 0 0 0 0 0 0 0 0 0 0 0 0 0 0 0 0 0 0 0 0 0 0 0 0 0 0 0 0 0 0 0 0 0 0 0 0 0
0 0 0 0 0 0 0 0 0 0 0 0 0 0 0 0 0 0 0 0 0 0 0 0 0 0 0 0 0 0 0 0 0 0 0 0 0 0
0 0 0 0 0 0 0 0 0 0 0 0 0 0 0 0 0 0 0 0 0 0 0 0 0 0 0 0 0 0 0 0 0 0 0 0 0 0
0 0 0 0 0 0 0 0 0 0 0 0 0 0 0 0 0 0 0 0 0 0 0 0 0 0 0 0 0 0 0 0 0 0 0 0 0 0
0 0 0 0 0 0 0 0 0 0 0 0 0 0 0 0 0 0 0 0 0 0 0 0 0 0 0 0 0 0 0 0 0 0 0 0 0 0
0 0 0 0 0 0 0 0 0 0 0 0 0 0 0 0 0 0 0 0 0 0 0 0 0 0 0 0 0 0 0 0 0 0 0 0 0 0
0 0 0 0 0 0 0 0 0 0 0 0 0 0 0 0 0 0 0 0 0 0 0 0 0 0 0 0 0 0 0 0 0 0 0 0 0 0
0 0 0 0 0 0 0 0 0 0 0 0 0 0 0 0 0 0 0 0 0 0 0 0 0 0 0 0 0 0 0 0 0 0 0 0 0 0
0 0 0 0 0 0 0 0 0 0 0 0 0 0 0 0 0 0 0 0 0 0 0 0 0 0 0 0 0 0 0 0 0 0 0 0 0 0
0 0 0 0 0 0 0 0 0 0 0 0 0 0 0 0 0 0 0 0 0 0 0 0 0 0 0 0 0 0 0 0 0 0 0 0 0 0
0 0 0 0 0 0 0 0 0 0 0 0 0 0 0 0 0 0 0 0 0 0 0 0 0 0 0 0 0 0 0 0 0 0 0 0 0 0
0 0 0 0 0 0 0 0 0 0 0 0 0 0 0 0 0 0 0 0 0 0 0 0 0 0 0 0 0 0 0 0 0 0 0 0 0 0
0 0 0 0 0 0 0 0 0 0 0 0 0 0 0 0 0 0 0 0 0 0 0 0 0 0 0 0 0 0 0 0 0 0 0 0 0 0
0 0 0 0 0 0 0 0 0 0 0 0 0 0 0 0 0 0 0 0 0 0 0 0 0 0 0 0 0 0 0 0 0 0 0 0 0 0
Wind_Speed
5 5 3 3 3 3 3 4 4 3 4 4 3 3 2 2 6 3 4 11 15 16 17 18 18 19 19 20 20 20 21 21 22 22 23 23 24 24
4 5 4 3 3 3 3 3 4 4 4 4 4 4 4 4 8 4 5 14 15 17 18 18 19 19 20 20 20 21 21 22 22 23 23 24 24 25
4 5 5 4 3 3 3 3 4 4 6 5 4 3 4 5 6 5 5 5 6 16 19 19 20 20 20 20 21 22 22 22 23 23 24 24 25 25
6 5 5 4 4 4 3 4 4 5 5 7 5 3 5 5 5 6 6 6 5 14 19 20 20 20 21 21 22 22 22 22 23 23 24 24 25 25
6 6 6 5 5 4 4 5 4 4 4 5 6 4 4 4 5 5 6 5 7 11 16 17 19 21 22 22 22 23 23 23 24 24 24 24 24 24
5 6 6 6 6 6 5 5 5 5 5 5 6 5 4 4 3 5 5 4 6 7 11 13 17 20 21 22 23 23 23 23 24 24 24 23 23 23
5 5 6 8 10 7 5 5 5 4 4 5 6 5 4 4 4 4 6 5 5 6 6 7 8 7 9 15 19 21 23 23 23 23 23 23 23 22
6 5 5 7 10 12 13 12 9 6 5 5 5 6 7 6 5 5 5 6 6 3 4 6 5 7 7 6 16 22 22 22 22 22 22 22 22 22
6 5 5 5 8 5 9 13 12 15 14 8 6 7 6 6 5 6 6 7 7 4 4 7 4 7 6 9 19 21 21 20 20 20 20 21 21 21
6 6 6 6 6 6 6 6 7 7 9 7 6 7 7 7 7 7 8 7 6 4 4 6 4 5 7 6 16 18 18 18 18 19 20 20 20 20
5 5 6 6 11 13 7 6 7 7 10 15 15 14 17 17 13 6 4 5 7 4 3 4 4 5 5 6 8 14 16 18 19 19 19 19 19 17
4 5 9 10 12 13 7 5 7 7 6 7 8 10 9 10 15 7 4 6 6 5 3 3 3 4 5 3 3 5 8 14 18 19 19 18 18 9
4 4 5 11 14 14 11 6 10 11 5 5 5 5 5 5 5 5 5 5 5 5 3 3 3 3 4 5 4 4 5 5 7 10 14 16 16 12
4 4 5 11 13 13 10 12 16 14 4 3 4 4 5 5 5 5 5 5 6 7 6 4 4 4 5 7 6 4 4 5 5 6 5 10 12 14
4 8 9 11 11 8 11 15 12 5 4 5 5 5 5 5 4 3 4 4 5 6 6 5 5 5 5 6 6 5 6 5 4 4 5 5 5 5
4 6 9 10 7 8 9 7 4 5 5 5 5 5 4 3 3 3 3 3 3 4 5 5 5 5 4 6 7 8 6 5 5 5 6 5 5 4
3 1 1 2 3 3 4 4 4 4 5 4 4 5 4 3 3 2 2 2 2 4 4 4 4 4 6 6 6 6 6 5 5 5 5 5 5 5
4 2 3 3 4 4 4 4 4 4 5 5 4 4 4 4 3 2 2 2 3 4 4 3 3 3 3 4 6 5 4 4 4 5 4 4 5 5
3 3 3 3 4 4 4 4 4 4 4 4 4 4 4 3 3 3 2 2 3 4 4 3 2 2 3 4 5 4 3 5 5 4 4 4 5 6
2 3 4 4 4 4 4 4 5 4 4 4 4 4 3 3 3 3 3 3 3 3 4 3 2 2 3 4 4 5 7 5 4 4 4 4 5 7
3 3 4 4 4 4 4 4 4 4 4 4 4 4 3 3 3 3 3 6 4 3 4 4 4 7 3 2 3 4 4 6 7 5 4 4 4 4
4 4 4 4 4 4 4 4 4 4 4 4 4 3 3 3 3 4 3 3 3 3 4 4 4 3 1 2 4 5 5 5 7 9 8 6 3 3
4 4 4 4 4 4 4 4 5 4 4 4 3 3 3 3 3 3 3 3 3 3 3 3 3 2 2 2 3 4 5 5 4 4 5 7 8 8
Wind_Direction
178 181 184 195 189 188 179 170 177 239 274 267 268 263 262 278 290 284 283 302 312 312 312 312 311 311 311 310 309 308 307 307 306 304 302 300 299 298
180 184 197 201 198 193 192 192 186 196 243 253 245 253 273 281 291 291 278 304 307 308 309 309 309 309 308 307 307 306 306 306 305 304 303 302 300 298
189 195 210 202 203 206 199 199 205 196 240 264 248 257 261 264 279 278 272 272 281 301 305 306 306 306 306 306 305 305 306 306 305 305 304 302 300 299
199 200 216 209 215 216 211 218 221 214 226 264 270 258 252 254 259 269 277 278 269 293 301 303 304 304 304 304 305 305 305 304 303 303 302 300 299 297
198 204 214 210 227 228 225 230 234 237 227 249 270 257 256 254 264 270 271 274 277 288 298 300 301 303 303 304 305 305 305 304 303 302 300 298 298 297
206 209 213 212 225 230 233 235 237 244 245 252 266 266 258 256 255 270 282 265 273 282 286 290 296 300 301 304 305 305 304 303 301 300 299 298 298 297
218 221 223 228 234 237 238 236 231 240 248 255 266 271 268 268 261 260 278 281 270 263 269 278 286 283 289 296 301 300 300 301 302 303 303 302 300 299
223 233 238 243 252 260 266 268 260 252 249 249 260 264 269 260 260 263 275 288 288 255 257 276 272 275 278 276 292 299 302 303 303 303 304 305 304 303
220 230 243 247 259 257 271 279 278 276 274 270 262 261 267 260 263 271 265 267 274 273 272 280 268 274 277 287 298 300 303 304 305 308 309 310 308 307
224 227 236 250 253 260 253 259 260 266 273 272 254 258 257 258 250 261 269 273 265 262 252 275 275 269 282 281 292 297 304 310 314 315 313 312 310 309
239 236 237 245 265 276 273 267 272 271 279 280 279 282 286 292 294 289 283 287 291 278 233 249 273 284 278 270 280 296 308 314 315 316 316 315 314 314
248 248 253 259 269 278 270 263 273 274 269 278 282 288 288 288 293 285 267 275 284 286 245 246 274 299 296 267 268 286 298 305 311 314 314 314 315 315
245 250 254 272 279 283 284 268 274 286 272 267 270 271 272 267 265 258 246 245 261 267 258 256 268 263 267 292 286 274 277 289 301 302 309 314 317 318
242 245 255 277 284 290 291 290 295 301 293 284 279 277 273 267 263 258 252 245 241 253 263 256 257 264 281 290 292 291 292 284 286 291 296 312 317 319
251 270 281 288 294 294 295 300 305 300 289 280 276 273 263 260 258 263 268 265 267 265 265 254 252 264 267 280 290 291 303 299 287 293 301 302 299 305
280 287 296 301 301 300 301 302 292 275 278 271 271 270 268 261 256 250 262 272 286 291 277 265 260 256 264 268 276 286 289 289 301 305 303 297 293 293
287 277 282 286 281 280 283 280 276 282 285 271 270 275 274 267 265 252 251 259 266 283 298 300 285 266 255 261 273 277 286 289 288 299 306 304 297 296
304 281 275 271 273 277 282 283 279 278 277 274 273 273 276 271 273 268 255 258 271 278 281 288 308 321 321 291 245 266 284 290 298 300 297 300 303 306
296 276 272 271 271 274 275 277 278 278 277 278 278 275 272 268 267 269 270 276 278 278 281 283 291 294 307 307 298 277 286 300 305 306 300 295 296 301
275 271 272 274 274 275 275 275 276 278 276 274 271 269 265 264 262 264 266 267 278 285 291 289 273 259 257 279 288 293 299 293 297 302 301 300 289 295
273 273 272 274 272 271 273 274 273 273 272 271 269 263 257 252 257 262 266 285 289 281 285 283 273 294 281 280 291 292 294 300 301 297 299 306 309 315
269 268 269 268 269 268 269 270 269 270 271 268 266 263 257 250 254 258 261 271 274 270 273 279 293 309 297 271 284 290 296 305 314 317 309 294 289 304
272 271 270 271 269 266 264 264 264 266 265 262 260 256 253 252 251 252 258 264 272 278 286 294 305 304 279 267 277 286 295 305 312 319 314 319 313 299